Location: Asheville, NC
(35.6000°N, 82.5500°W)
Time: 22:40:21
(UTC-05:00)

NUDT-PHONESAT - Pass Details

Date: 03 January 2018
Orbit: 494 x 513 km, 97.4° (Epoch: 17 January)

Event Time Altitude Azimuth Distance (km) Brightness Sun altitude
Rises 06:01:06 0° 29° (NNE) 2,614 ? -19.6°
Reaches altitude 10° 06:03:39 10° 47° (NE) 1,720 ? -19.1°
Maximum altitude 06:06:23 19° 95° (E) 1,229 ? -18.5°
Drops below altitude 10° 06:09:06 10° 143° (SE) 1,702 ? -18.0°
Sets 06:11:36 0° 161° (SSE) 2,576 ? -17.5°
